Weather History for Ludington, MI

Change the Weather History Date:

Sunday, May 19, 2013

  Actual Average Record
Temperature  
Mean Temperature 70 °F -  
Max Temperature 84 °F 69 °F 87 °F (1951)
Min Temperature 56 °F 45 °F 26 °F (2002)
Cooling Degree Days 5    
Growing Degree Days 20 (Base 50)    
Moisture  
Dew Point 54 °F    
Average Humidity 62    
Maximum Humidity 86    
Minimum Humidity 39    
Precipitation  
Precipitation 0.00 in - - ()
Sea Level Pressure  
Sea Level Pressure 29.93 in    
Wind  
Wind Speed 5 mph (SSE)    
Max Wind Speed 15 mph    
Max Gust Speed 24 mph    
Visibility 10 miles    
Events      
Averages and records for this station are not official NWS values.
T = Trace of Precipitation, MM = Missing Value Source: NWS Daily Summary

Daily Weather History Graph

Daily Weather History Graph

Search for Another Location

Airport:

Trip Planner

Search our weather history database for the weather conditions in past years. The results will help you decide how hot, cold, wet, or windy it might be!

Date:

Astronomy

May. 19, 2013 Rise Set
Actual Time 6:15 AM EDT 9:09 PM EDT
Civil Twilight 5:41 AM EDT 9:43 PM EDT
Nautical Twilight 4:58 AM EDT 10:26 PM EDT
Astronomical Twilight 4:08 AM EDT 11:17 PM EDT
Moon 3:01 PM EDT (5/19) 2:51 AM EDT (5/19)
Length of Visible Light 16h 02m
Length of Day
14h 54m
Waxing Gibbous, 65% of the Moon is Illuminated
May 19
Waxing Gibbous
May 25
Full
May 31
Last Quarter
Jun 8
New
Jun 16
First Quarter

Hourly Weather History & Observations

Time (EDT) Temp. Heat Index Dew Point Humidity Pressure Visibility Wind Dir Wind Speed Gust Speed Precip Events Conditions
12:15 AM 60.8 °F - 51.1 °F 70% 30.00 in 10.0 mi ESE 3.5 mph - N/A   Scattered Clouds
12:35 AM 60.3 °F - 50.9 °F 71% 29.99 in 10.0 mi East 3.5 mph - N/A   Clear
12:55 AM 60.3 °F - 50.0 °F 69% 29.99 in 10.0 mi ESE 3.5 mph - N/A   Clear
1:15 AM 61.7 °F - 48.0 °F 61% 29.99 in 10.0 mi SE 5.8 mph - N/A   Clear
1:35 AM 61.9 °F - 47.5 °F 59% 29.98 in 10.0 mi SE 5.8 mph - N/A   Clear
1:55 AM 61.7 °F - 47.3 °F 59% 29.98 in 10.0 mi ESE 4.6 mph - N/A   Clear
2:15 AM 60.6 °F - 46.8 °F 60% 29.98 in 10.0 mi ESE 3.5 mph - N/A   Clear
2:35 AM 60.3 °F - 46.6 °F 61% 29.97 in 10.0 mi SE 4.6 mph - N/A   Clear
2:55 AM 60.3 °F - 47.1 °F 62% 29.97 in 10.0 mi ESE 4.6 mph - N/A   Clear
3:15 AM 60.3 °F - 47.1 °F 62% 29.97 in 10.0 mi ESE 4.6 mph - N/A   Clear
3:35 AM 57.9 °F - 46.9 °F 67% 29.97 in 10.0 mi East 4.6 mph - N/A   Clear
3:55 AM 57.7 °F - 48.2 °F 70% 29.98 in 10.0 mi East 4.6 mph - N/A   Clear
4:15 AM 57.7 °F - 48.2 °F 70% 29.98 in 10.0 mi East 4.6 mph - N/A   Clear
4:35 AM 56.5 °F - 47.7 °F 72% 29.98 in 10.0 mi ESE 4.6 mph - N/A   Clear
4:55 AM 56.3 °F - 47.7 °F 73% 29.99 in 10.0 mi ESE 3.5 mph - N/A   Clear
5:15 AM 56.8 °F - 48.4 °F 73% 29.98 in 10.0 mi Calm Calm - N/A   Clear
5:35 AM 57.7 °F - 49.1 °F 73% 29.99 in 10.0 mi ESE 3.5 mph - N/A   Clear
5:55 AM 57.7 °F - 48.9 °F 72% 29.99 in 10.0 mi SE 3.5 mph - N/A   Clear
6:15 AM 57.7 °F - 49.3 °F 73% 29.99 in 10.0 mi SE 3.5 mph - N/A   Clear
6:35 AM 57.7 °F - 49.1 °F 73% 29.99 in 10.0 mi SE 3.5 mph - N/A   Clear
6:55 AM 57.7 °F - 49.1 °F 73% 29.99 in 10.0 mi SE 3.5 mph - N/A   Clear
7:15 AM 60.3 °F - 49.8 °F 68% 29.99 in 10.0 mi SE 3.5 mph - N/A   Clear
7:35 AM 60.3 °F - 48.7 °F 66% 29.99 in 10.0 mi SSE 3.5 mph - N/A   Clear
8:15 AM 63.0 °F - 48.7 °F 60% 29.98 in 10.0 mi SSE 4.6 mph - N/A   Clear
8:35 AM 65.3 °F - 49.3 °F 56% 29.99 in 10.0 mi SSE 4.6 mph - N/A   Clear
8:55 AM 68.0 °F - 50.9 °F 54% 30.00 in 10.0 mi SSE 3.5 mph - N/A   Clear
9:15 AM 70.3 °F - 52.7 °F 53% 30.00 in 10.0 mi South 3.5 mph - N/A   Clear
9:35 AM 70.7 °F - 52.3 °F 52% 29.99 in 10.0 mi SSW 6.9 mph - N/A   Clear
9:55 AM 72.9 °F - 53.6 °F 51% 29.99 in 10.0 mi SSW 8.1 mph - N/A   Clear
10:15 AM 75.4 °F - 55.2 °F 49% 29.99 in 10.0 mi SW 9.2 mph - N/A   Scattered Clouds
10:55 AM 75.4 °F - 53.8 °F 47% 29.98 in 10.0 mi SSW 10.4 mph - N/A   Clear
11:15 AM 75.4 °F - 54.1 °F 48% 29.97 in 10.0 mi SW 6.9 mph - N/A   Clear
11:35 AM 76.6 °F - 56.1 °F 49% 29.97 in 10.0 mi SSW 9.2 mph - N/A   Clear
11:55 AM 75.4 °F - 54.0 °F 47% 29.98 in 10.0 mi WSW 15.0 mph - N/A   Clear
12:15 PM 72.5 °F - 51.6 °F 48% 29.98 in 10.0 mi WSW 10.4 mph - N/A   Clear
12:35 PM 73.6 °F - 53.4 °F 49% 29.97 in 10.0 mi SW 10.4 mph 16.1 mph N/A   Clear
12:55 PM 75.0 °F - 55.6 °F 51% 29.96 in 10.0 mi WSW 8.1 mph - N/A   Clear
1:15 PM 75.4 °F - 55.2 °F 49% 29.96 in 10.0 mi WSW 9.2 mph - N/A   Clear
1:35 PM 75.4 °F - 56.7 °F 52% 29.95 in 10.0 mi West 5.8 mph - N/A   Clear
1:55 PM 75.4 °F - 55.6 °F 50% 29.94 in 10.0 mi West 3.5 mph - N/A   Clear
2:15 PM 77.7 °F - 57.7 °F 50% 29.93 in 10.0 mi West 5.8 mph - N/A   Clear
2:35 PM 75.4 °F - 56.7 °F 52% 29.91 in 10.0 mi WSW 4.6 mph - N/A   Clear
3:15 PM 81.5 °F 81.7 °F 58.8 °F 46% 29.88 in 10.0 mi SSE 6.9 mph - N/A   Clear
3:35 PM 81.7 °F 81.8 °F 58.6 °F 45% 29.86 in 10.0 mi SE 11.5 mph 16.1 mph N/A   Clear
3:55 PM 82.6 °F 82.3 °F 58.3 °F 43% 29.86 in 10.0 mi SSE 11.5 mph 17.3 mph N/A   Clear
4:15 PM 82.6 °F 82.2 °F 57.4 °F 42% 29.85 in 10.0 mi South 13.8 mph 20.7 mph N/A   Clear
4:35 PM 83.3 °F 82.6 °F 56.7 °F 40% 29.83 in 10.0 mi SSE 15.0 mph 24.2 mph N/A   Clear
4:55 PM 83.7 °F 83.0 °F 57.2 °F 40% 29.83 in 10.0 mi SSE 11.5 mph - N/A   Clear
5:15 PM 84.0 °F 83.2 °F 56.3 °F 39% 29.86 in 10.0 mi South 12.7 mph 18.4 mph N/A   Clear
5:35 PM 76.5 °F - 56.8 °F 51% 29.87 in 10.0 mi WSW 11.5 mph - N/A   Clear
5:55 PM 75.4 °F - 58.6 °F 56% 29.88 in 10.0 mi WSW 11.5 mph - N/A   Clear
6:15 PM 75.4 °F - 59.9 °F 58% 29.87 in 10.0 mi WSW 6.9 mph - N/A   Clear
6:35 PM 73.8 °F - 60.1 °F 62% 29.87 in 10.0 mi WSW 8.1 mph - N/A   Clear
6:55 PM 70.3 °F - 59.2 °F 68% 29.87 in 7.0 mi West 5.8 mph - N/A   Clear
7:15 PM 67.1 °F - 57.4 °F 71% 29.87 in 7.0 mi WSW 6.9 mph - N/A   Clear
7:35 PM 65.3 °F - 56.3 °F 73% 29.85 in 5.0 mi Calm Calm - N/A   Haze
7:55 PM 67.5 °F - 57.7 °F 71% 29.84 in 7.0 mi Calm Calm - N/A   Clear
8:15 PM 68.0 °F - 58.1 °F 71% 29.84 in 7.0 mi Calm Calm - N/A   Clear
8:35 PM 69.8 °F - 60.4 °F 72% 29.84 in 7.0 mi Calm Calm - N/A   Clear
8:55 PM 67.8 °F - 58.8 °F 73% 29.84 in 10.0 mi Calm Calm - N/A   Clear
9:14 PM 64.6 °F - 58.1 °F 79% 29.83 in 7.0 mi Calm Calm - N/A   Clear
9:35 PM 64.0 °F - 58.3 °F 82% 29.84 in 10.0 mi Calm Calm - N/A   Clear
9:55 PM 63.1 °F - 58.1 °F 84% 29.85 in 10.0 mi Calm Calm - N/A   Clear
10:15 PM 62.8 °F - 57.9 °F 84% 29.85 in 10.0 mi Calm Calm - N/A   Clear
10:35 PM 62.6 °F - 58.3 °F 86% 29.85 in 7.0 mi ESE 3.5 mph - N/A   Clear
10:55 PM 62.8 °F - 58.3 °F 85% 29.86 in 7.0 mi Calm Calm - N/A   Clear
11:15 PM 65.3 °F - 59.5 °F 82% 29.85 in 10.0 mi East 3.5 mph - N/A   Clear
11:35 PM 62.8 °F - 58.1 °F 85% 29.85 in 10.0 mi Calm Calm - N/A   Clear
11:55 PM 62.8 °F - 58.3 °F 85% 29.84 in 7.0 mi East 6.9 mph - N/A   Clear